Content
SEND FEEDBACK

Daily
Averages
Monthly
Summary
United States of America

GREENFIELD, MASSACHUSETTS


Home > North America > United States > Massachusetts
Elevation: 190 feet     Latitude: 42 37N     Longitude: 072 33W

WEATHER
 
SELECT A DAY
Number of Records: 216,858;   Date Range: 7/1/96 - 11/26/14
 
SHARE

PRINT THIS DATA

[ ← Previous Day ]
WEATHER ALMANAC - AUGUST 10, 2014
[ Next Day → ]
[ °C ]   °F
Weather ElementAverageHighLow
Temperature68.5 °F84 °F (1:52 pm)54 °F (2:52 am)
Dewpoint55.1 °F62.1 °F (7:52 pm)48.9 °F (5:52 am)
Humidity68.7 %97 % (12:52 am)31 % (2:52 pm)
Barometer30.13 in30.16 in (7:52 am)30.11 in (8:52 am)
Wind Speed1.5 mph5.8 mph (9:52 am)
Weather ElementAverage
Visibility10 mi
Wind DirectionNNE (20.5 °)

Weather ElementTotal
Precipitation---
Cooling Degree Days4 (Base 65)
Growing Degree Days19 (Base 50)
Averaged from 20 records on August 10, 2014
WEATHER CONDITIONS BREAKOUT
WIND DIRECTION BREAKOUT
WEATHER BY HOUR - AUGUST 10, 2014
[ °C ]   °F
Local TimeTemperatureDewpointHumidityBarometerVisibilityWind DirectionWind SpeedGust SpeedPrecipitationEventsConditions
12:52 AM59.0 °F57.0 °F93 %30.12 in10.0 miCalmClear
1:52 AM57.9 °F55.9 °F93 %30.13 in10.0 miCalmClear
2:52 AM55.9 °F55.0 °F97 %30.13 in10.0 miCalmClear
3:52 AM55.0 °F54.0 °F96 %30.13 in10.0 miCalmClear
4:52 AM54.0 °F53.1 °F97 %30.14 in10.0 miCalmClear
5:52 AM54.0 °F52.0 °F93 %30.14 in10.0 miCalmClear
6:52 AM55.9 °F54.0 °F93 %30.15 in10.0 miCalmClear
7:52 AM61.0 °F57.0 °F87 %30.16 in10.0 miCalmClear
8:52 AM66.9 °F57.9 °F73 %30.16 in10.0 miCalmClear
10:52 AM79.0 °F57.0 °F47 %30.15 in10.0 miVariable3.5 mphClear
11:52 AM81.0 °F52.0 °F36 %30.14 in10.0 miVariable3.5 mphClear
12:52 PM82.0 °F51.1 °F34 %30.13 in10.0 miVariable4.6 mphClear
1:52 PM84.0 °F51.1 °F32 %30.12 in10.0 miWest (280°)5.8 mphMostly Cloudy
2:52 PM82.9 °F48.9 °F31 %30.12 in10.0 miVariable4.6 mphMostly Cloudy
4:52 PM82.9 °F52.0 °F34 %30.11 in10.0 miCalmClear
5:52 PM82.0 °F53.1 °F37 %30.11 in10.0 miVariable3.5 mphOvercast
6:52 PM80.1 °F55.9 °F43 %30.11 in10.0 miSE (130°)4.6 mphClear
8:52 PM69.1 °F62.1 °F78 %30.12 in10.0 miCalmClear
9:52 PM64.9 °F61.0 °F87 %30.13 in10.0 miCalmClear
10:52 PM63.0 °F61.0 °F93 %30.14 in10.0 miCalmClear
Hourly data recorded from KORE, located miles away from Greenfield, Massachusetts







STORIES FROM OUR PARTNERS